Regional Weather Roundup
Issued by NWS

Home | Current Version | Previous Version | Text Only | Print | Product List | Glossary Off
Versions: 1 2 3 4 5 6 7 8 9 10 11 12 13 14 15 16 17 18 19 20 21 22 23 24 25 26 27 28 29 30 31 32 33 34 35 36 37 38 39 40 41 42 43 44 45 46 47 48 49 50

000
ASUS43 KFSD 061402
RWRSD

WEATHER ROUNDUP FOR SOUTH DAKOTA
NATIONAL WEATHER SERVICE SIOUX FALLS SD
800 AM CST FRI MAR 06 2015

NOTE: "FAIR" INDICATES FEW OR NO CLOUDS BELOW 12,000 FEET WITH NO
SIGNIFICANT WEATHER AND/OR OBSTRUCTIONS TO VISIBILITY.


SDZ001>005-009-010-012>017-061500-
NORTHWEST AND NORTH CENTRAL SOUTH DAKOTA

CITY           SKY/WX    TMP DP  RH WIND       PRES   REMARKS
BUFFALO          N/A     29  17  61 W6        30.01S WCI  23
FAITH            N/A     27  16  63 NW9       30.09R WCI  18
MOBRIDGE       CLEAR     22  14  71 NW5       30.07R WCI  16
$$

SDZ012>016-024>037-041>051-057-063-072>074-061500-
SOUTHWEST AND SOUTH CENTRAL SOUTH DAKOTA

CITY           SKY/WX    TMP DP  RH WIND       PRES   REMARKS
RAPID CTY ARPT CLEAR     28  18  66 NW6       30.12S WCI  22
PIERRE         CLEAR     27  18  69 W12       30.10R WCI  17
CUSTER         PTCLDY    32  12  43 W13G22    30.11S WCI  22
ELLSWORTH AFB  PTCLDY    29  17  60 W9        30.11S WCI  21
PHILIP         CLEAR     23  17  78 W8        30.12S WCI  14
PINE RIDGE     MOCLDY    34  22  61 W8        30.17S WCI  27
SPEARFISH      FAIR      36  16  44 W13       30.11S
WINNER         FAIR      33  18  53 W10       30.12R WCI  25
$$

SDZ004>011-016>023-039-040-061500-
NORTHEAST SOUTH DAKOTA

CITY           SKY/WX    TMP DP  RH WIND       PRES   REMARKS
ABERDEEN       CLEAR      9   4  80 CALM      30.09R
WATERTOWN      CLEAR     20  11  68 W10       30.04R WCI   9
$$

SDZ017-020-022-023-036>040-048>070-061500-
SOUTHEAST SOUTH DAKOTA

CITY           SKY/WX    TMP DP  RH WIND       PRES   REMARKS
SIOUX FALLS    MOSUNNY   23  14  68 W6        30.09S WCI  16
HURON          PTCLDY    20  14  77 NE6       30.10R WCI  12
MITCHELL       CLOUDY    33  20  58 W12       30.09F WCI  24
YANKTON        SUNNY     25  18  74 CALM      30.14S
$$

ABBREVIATIONS USED IN REMARKS
   TC - TEMPERATURE IN CELSIUS
  WCI - WIND CHILL INDEX
   HX - HEAT INDEX
  VSB - VISIBILITY




USA.gov is the U.S. government's official web portal to all federal, state and local government web resources and services.